Location: Cucq
(50.4773°N, 1.6202°E)
Time: 16:44:36
(UTC+00:00)

H-2A R/B - Pass Details

Date: 07 August 2020
Orbit: 578 x 654 km, 98.5° (Epoch: 24 September)

Event Time Altitude Azimuth Distance (km) Brightness Sun altitude
Rises 03:44:51 0° 180° (S) 2,807 5.1 -7.0°
Reaches altitude 10° 03:47:05 10° 186° (S) 1,904 4.2 -6.7°
Maximum altitude 03:51:02 45° 260° (W) 801 2.3 -6.2°
Drops below altitude 10° 03:55:00 10° 334° (NNW) 1,905 4.7 -5.7°
Sets 03:57:14 0° 341° (NNW) 2,809 5.6 -5.4°
